CW0677 Weather Reports


Display with metric or nautical units.
time (UTC)temp
F
wind
direction
speed
MPH
gust
MPH
rain 1hr
in
rain 24hr
in
rain mn
in
humidity
%
barometer
mb
20260507220055 68 200 4.0 10.0 0.00 0.00 0.00 73 1017.6
20260507214555 67 195 2.0 11.0 0.00 0.00 0.00 74 1017.8
20260507213054 66 209 3.0 11.0 0.00 0.00 0.00 74 1018.1
20260507211601 66 174 3.0 11.0 0.00 0.00 0.00 75 1018.1
20260507210057 65 198 3.0 11.0 0.00 0.00 0.00 76 1018.1
20260507204555 65 150 3.0 10.0 0.00 0.00 0.00 77 1018.3
20260507203054 66 135 3.0 9.0 0.00 0.00 0.00 77 1018.4
20260507201600 65 245 3.0 11.0 0.00 0.00 0.00 78 1018.5
20260507200055 64 252 2.0 10.0 0.00 0.00 0.00 79 1018.6
20260507194553 63 153 3.0 10.0 0.00 0.00 0.00 79 1018.7
20260507193059 63 245 1.0 9.0 0.00 0.00 0.00 80 1018.9
20260507191554 60 285 2.0 6.0 0.00 0.00 0.00 81 1019.3
20260507190057 60 285 1.0 6.0 0.00 0.00 0.00 81 1019.6
20260507184555 59 177 0.0 6.0 0.00 0.00 0.00 82 1019.6
20260507183055 59 190 2.0 6.0 0.00 0.00 0.00 83 1019.7
20260507181556 57 0 1.0 7.0 0.00 0.00 0.00 85 1019.7
20260507174627 57 12 1.0 4.0 0.00 0.00 0.00 86 1019.8
20260507173100 56 0 1.0 4.0 0.00 0.00 0.00 86 1019.8
20260507171611 56 70 1.0 4.0 0.00 0.00 0.00 88 1019.7
20260507170057 55 131 1.0 4.0 0.00 0.00 0.00 88 1019.9
20260507164601 55 0 0.0 2.0 0.00 0.00 0.00 90 1019.8
20260507163053 54 318 2.0 4.0 0.00 0.00 0.00 90 1019.8
20260507161559 54 148 2.0 4.0 0.00 0.00 0.00 90 1019.7
20260507160115 54 242 0.0 3.0 0.00 0.00 0.00 91 1019.6
20260507154558 53 195 1.0 4.0 0.00 0.00 0.00 92 1019.6
20260507153056 53 224 1.0 4.0 0.00 0.00 0.00 92 1019.6
20260507151600 53 0 0.0 3.0 0.00 0.00 0.00 92 1019.7
20260507150058 52 232 1.0 4.0 0.00 0.00 0.00 92 1019.7
20260507144556 52 202 1.0 4.0 0.00 0.00 0.00 93 1019.7
20260507143111 52 186 0.0 4.0 0.00 0.00 0.00 92 1019.6
20260507141633 52 0 0.0 4.0 0.00 0.00 0.00 93 1019.5
20260507140112 52 149 1.0 6.0 0.00 0.00 0.00 92 1019.3
20260507134607 52 98 0.0 4.0 0.00 0.00 0.00 92 1019.0
20260507133100 52 126 1.0 3.0 0.00 0.00 0.00 92 1018.8
20260507131616 52 171 1.0 4.0 0.00 0.00 0.00 92 1018.6
20260507124601 52 214 0.0 5.0 0.00 0.00 0.00 92 1018.5
20260507123103 52 0 0.0 3.0 0.00 0.00 0.00 92 1018.5
20260507121601 52 159 1.0 4.0 0.00 0.00 0.00 92 1018.5
20260507120056 53 161 0.0 4.0 0.00 0.00 0.00 92 1018.5
20260507114556 53 232 0.0 4.0 0.00 0.00 0.00 91 1018.6
20260507113125 53 178 0.0 4.0 0.00 0.00 0.00 91 1018.7
20260507111555 53 130 1.0 3.0 0.00 0.00 0.00 91 1018.8
20260507110057 53 180 0.0 5.0 0.00 0.00 0.00 91 1018.8
20260507104605 53 138 2.0 6.0 0.00 0.00 0.00 91 1018.8
20260507103055 53 0 1.0 5.0 0.00 0.00 0.00 90 1018.9
20260507101558 53 153 1.0 4.0 0.00 0.00 0.00 90 1019.0
20260507100058 53 140 1.0 5.0 0.00 0.00 0.00 90 1018.9
20260507094605 53 211 2.0 4.0 0.00 0.00 0.00 90 1019.0
20260507093054 53 201 1.0 5.0 0.00 0.00 0.00 90 1019.1
20260507091557 53 175 1.0 7.0 0.00 0.00 0.00 90 1019.3
20260507090056 54 203 2.0 6.0 0.00 0.00 0.00 89 1019.3
20260507084559 54 237 2.0 6.0 0.00 0.00 0.00 89 1019.4
20260507083054 54 225 3.0 7.0 0.00 0.00 0.00 89 1019.3
20260507081552 54 199 1.0 7.0 0.00 0.00 0.00 89 1019.2
20260507080058 54 169 2.0 6.0 0.00 0.00 0.00 89 1019.3
20260507074558 54 207 1.0 7.0 0.00 0.00 0.00 88 1019.3
20260507073059 54 206 1.0 5.0 0.00 0.00 0.00 89 1019.3
20260507071557 54 233 3.0 8.0 0.00 0.00 0.00 88 1019.3
20260507070107 54 140 2.0 8.0 0.00 0.00 0.00 88 1019.1
20260507064605 54 210 2.0 6.0 0.00 0.00 0.00 88 1018.9
20260507063105 54 150 2.0 9.0 0.00 0.00 0.00 88 1018.9
20260507061556 54 162 2.0 9.0 0.00 0.00 0.00 88 1019.0
20260507060058 54 212 2.0 8.0 0.00 0.00 0.00 88 1018.8
20260507054553 54 175 4.0 9.0 0.00 0.00 0.00 87 1018.9
20260507053054 55 233 4.0 10.0 0.00 0.00 0.00 87 1018.8
20260507051600 55 153 3.0 9.0 0.00 0.00 0.00 87 1018.8
20260507050108 55 206 3.0 8.0 0.00 0.00 0.00 87 1018.7
20260507044556 55 221 1.0 11.0 0.00 0.00 0.00 86 1018.7
20260507043054 56 0 3.0 10.0 0.00 0.00 0.00 86 1018.6
20260507041553 56 152 3.0 12.0 0.00 0.00 0.00 85 1018.6
20260507040101 56 143 2.0 9.0 0.00 0.00 0.00 85 1018.5
20260507034559 57 185 4.0 16.0 0.00 0.00 0.00 84 1018.4
20260507033054 57 207 3.0 11.0 0.00 0.00 0.00 83 1018.4
20260507031555 58 223 4.0 8.0 0.00 0.00 0.00 82 1018.4
20260507030055 59 215 2.0 10.0 0.00 0.00 0.00 81 1018.3
20260507024554 60 144 4.0 14.0 0.00 0.00 0.00 79 1018.3
20260507023056 62 158 3.0 12.0 0.00 0.00 0.00 77 1018.0
20260507021604 64 167 3.0 10.0 0.00 0.00 0.00 74 1018.1
20260507020057 65 140 5.0 11.0 0.00 0.00 0.00 73 1018.2
20260507014602 67 213 3.0 10.0 0.00 0.00 0.00 71 1018.2
20260507013054 67 255 2.0 10.0 0.00 0.00 0.00 71 1018.3
20260507011600 67 175 6.0 13.0 0.00 0.00 0.00 69 1018.2
20260507010056 69 212 5.0 12.0 0.00 0.00 0.00 67 1018.2
20260507004558 70 244 4.0 11.0 0.00 0.00 0.00 65 1018.2
20260507003058 70 190 4.0 11.0 0.00 0.00 0.00 66 1018.1
20260507001603 70 177 4.0 12.0 0.00 0.00 0.00 65 1018.1
20260507000055 71 288 4.0 11.0 0.00 0.00 0.00 64 1018.1
20260506234617 72 221 3.0 12.0 0.00 0.00 0.00 64 1018.1
20260506233056 71 233 4.0 14.0 0.00 0.00 0.00 65 1018.3
20260506231556 71 192 5.0 13.0 0.00 0.00 0.00 65 1018.4
20260506230058 72 271 5.0 12.0 0.00 0.00 0.00 66 1018.6
20260506224557 71 258 6.0 13.0 0.00 0.00 0.00 66 1018.6
20260506223100 73 188 5.0 15.0 0.00 0.00 0.00 66 1018.7
20260506221603 72 196 5.0 11.0 0.00 0.00 0.00 66 1018.9